Wind_Speed
40 40 39 39 40 40 39 39 39 39 38 38 38 38 38 38 38 37 38 38 38 39 38 38 38 39 39 39 40 40 41 42 42 42 41 41 41 42
42 42 42 42 41 41 41 40 40 40 40 39 39 39 40 40 40 40 40 39 39 40 40 40 40 40 41 41 42 42 43 43 43 43 42 42 43 43
44 44 44 43 43 42 42 42 42 42 41 41 41 40 41 41 41 41 41 41 41 41 41 42 42 42 42 43 43 43 44 44 44 44 44 44 44 44
45 45 44 44 43 43 42 42 43 42 42 42 42 42 42 42 42 42 42 42 42 43 43 42 42 43 43 44 44 44 44 44 44 44 44 44 45 45
46 46 45 45 44 44 43 43 43 43 43 43 43 42 43 43 44 44 43 43 43 44 44 43 44 44 44 44 44 44 44 44 45 45 45 45 46 46
47 47 46 45 45 45 44 44 44 44 44 44 44 44 44 44 45 45 44 45 45 46 46 46 46 45 45 45 45 45 45 45 46 46 46 47 47 47
47 46 46 46 45 45 45 45 45 45 45 45 45 45 45 45 46 46 46 46 46 46 46 46 46 45 45 45 45 46 46 47 47 47 48 48 48 48
48 47 47 46 46 45 45 45 45 45 45 46 46 46 46 46 46 46 46 46 46 46 47 46 47 46 46 46 47 47 48 48 49 49 49 50 50 50
48 48 48 47 47 47 46 46 46 46 46 46 45 45 46 46 46 47 47 47 47 47 47 46 46 46 47 47 48 49 50 50 50 50 51 51 51 52
49 49 49 49 48 48 48 47 47 47 47 47 46 46 47 47 47 47 47 47 47 47 48 47 47 48 49 50 51 51 51 51 51 52 52 52 52 52
50 50 50 49 49 49 48 48 48 48 48 48 48 48 48 48 48 48 48 47 47 47 47 48 48 49 49 50 50 51 51 51 51 52 52 53 53 54
51 51 51 50 50 49 49 49 49 49 49 49 49 50 49 49 48 48 47 47 47 47 47 48 48 49 49 49 50 50 50 50 51 51 52 53 54 54
52 51 51 51 50 50 50 49 50 50 49 49 49 49 49 49 48 48 48 48 48 48 48 49 49 49 49 49 49 50 51 51 51 52 52 53 53 54
50 50 50 51 51 50 50 50 50 50 50 50 50 50 49 49 48 49 49 49 49 49 49 49 49 50 50 50 50 50 51 51 52 52 53 53 54 54
50 49 50 51 51 51 51 50 50 50 50 50 50 49 49 49 49 49 49 49 49 50 50 50 51 52 52 52 51 52 52 52 53 53 53 54 54 54
48 49 49 49 50 50 50 50 49 49 50 49 49 49 49 50 50 49 49 50 50 51 51 51 52 52 52 52 53 53 53 54 54 54 54 54 54 54
48 48 48 48 48 49 49 50 50 49 49 48 48 49 49 49 50 50 50 50 50 51 51 51 51 51 51 52 52 53 53 53 53 54 53 53 54 54
47 48 47 47 47 48 47 48 47 47 47 47 48 48 48 48 48 49 49 49 49 49 50 50 50 51 51 51 52 52 52 52 53 53 53 52 52 53
45 45 45 45 46 46 46 46 46 47 47 47 48 48 47 47 48 48 48 48 48 48 49 49 50 50 50 50 51 52 52 52 52 52 52 52 52 52
45 45 45 45 45 45 45 46 46 46 45 45 46 46 46 47 47 47 47 47 48 48 49 49 49 50 50 50 51 51 52 52 52 52 52 52 52 52
44 45 45 45 45 45 45 45 45 45 44 45 45 45 46 46 46 46 46 46 46 47 47 48 48 49 50 50 50 50 50 51 51 51 51 51 50 48
41 41 42 42 43 44 45 45 45 45 45 45 45 45 45 46 46 46 46 46 47 47 47 47 48 48 48 48 48 48 48 48 49 49 49 49 47 45
40 40 40 40 41 42 43 44 44 44 45 45 45 45 45 45 46 46 46 46 46 46 46 46 46 46 46 46 46 46 46 46 46 45 44 44 44 42
Wind_Direction
255 257 260 262 264 266 268 269 269 270 271 273 274 275 277 278 281 282 283 284 284 284 283 284 285 286 287 287 289 291 292 293 294 295 295 294 294 294
256 258 261 263 264 266 267 268 269 271 271 273 274 275 276 278 280 281 282 283 284 284 284 284 285 287 288 288 289 290 292 293 293 293 294 293 293 293
257 259 261 263 265 266 267 267 268 269 271 272 273 275 276 278 279 280 281 282 283 284 284 284 286 287 288 289 290 290 291 292 292 292 292 293 293 293
258 260 262 263 264 266 267 267 268 269 270 271 272 274 276 277 278 279 280 281 282 283 284 284 285 286 288 289 289 290 291 291 292 292 292 292 293 294
258 260 261 262 263 265 266 266 268 269 270 271 272 274 275 276 277 278 279 280 282 282 283 283 284 285 287 288 289 289 290 290 291 292 291 292 293 294
258 259 261 262 263 264 265 266 267 268 270 271 272 273 275 276 277 278 278 279 280 282 282 282 284 285 286 287 288 289 289 290 291 291 291 292 293 293
258 259 260 261 262 263 265 266 267 269 270 272 272 273 275 276 276 277 278 279 281 281 281 282 283 284 285 286 287 288 289 290 290 290 291 291 292 293
257 258 259 260 262 263 265 267 268 269 271 272 273 274 275 276 277 278 279 279 280 280 281 282 283 284 285 286 288 288 288 289 290 290 291 291 292 293
257 259 259 260 262 264 265 267 268 269 271 272 273 274 275 276 277 278 279 280 281 282 282 282 283 284 286 287 287 288 289 289 290 290 290 291 292 292
258 259 259 260 262 264 265 266 268 269 270 271 272 274 275 276 277 278 279 280 282 282 282 283 283 285 286 287 288 289 289 289 289 290 290 290 291 291
257 258 259 260 262 263 264 266 267 268 269 270 272 273 275 276 277 278 279 281 281 281 283 284 285 285 286 287 288 289 289 290 290 291 291 290 291 291
257 258 259 260 261 263 264 265 266 267 269 271 272 274 275 276 277 278 279 279 280 281 283 285 286 287 288 288 289 290 290 291 291 292 292 292 292 292
257 257 258 259 261 263 264 264 265 267 268 270 272 273 274 275 275 276 277 279 280 282 283 285 286 287 288 289 289 290 290 291 291 292 292 293 293 293
257 257 258 260 261 262 263 265 265 267 268 269 271 272 273 273 275 276 277 279 280 282 283 285 286 287 288 289 289 290 290 291 292 292 293 293 293 293
257 258 259 260 261 262 264 264 265 266 267 269 270 271 272 273 274 275 277 279 280 282 283 285 286 287 288 289 289 290 290 290 292 292 293 293 293 293
257 258 259 259 261 262 263 263 264 266 267 269 270 271 272 273 273 274 276 278 280 282 283 285 286 287 288 289 289 290 290 291 291 292 293 294 294 294
257 258 258 259 260 262 263 263 264 265 267 269 269 270 272 272 273 274 276 278 280 281 283 284 286 287 288 289 290 290 290 291 291 292 293 294 295 295
257 257 259 260 262 262 263 263 264 266 267 268 269 271 271 272 273 275 277 278 280 282 283 284 285 286 288 289 290 290 290 291 292 293 293 294 295 295
258 259 259 260 261 262 263 264 266 267 268 268 269 270 271 272 274 275 277 279 280 282 283 284 285 287 287 288 289 290 291 292 292 293 294 295 296 296
260 261 261 261 261 262 263 264 266 267 268 269 270 271 271 273 274 276 277 279 280 281 283 284 286 287 288 289 290 291 292 292 293 293 294 295 296 297
260 260 260 261 261 262 263 264 265 267 269 270 271 271 272 274 275 276 277 279 281 282 283 285 287 288 289 289 290 291 292 293 294 294 295 296 296 297
259 259 260 261 262 262 263 264 266 267 269 270 271 272 273 274 275 276 278 280 282 284 285 286 287 289 289 290 291 292 293 294 295 296 297 297 298 297
258 259 260 262 262 263 264 265 266 267 268 269 271 272 273 274 275 277 278 281 283 284 285 287 288 289 290 291 292 294 295 296 296 297 298 299 299 299
Height
5766 5768 5770 5771 5772 5774 5774 5775 5777 5777 5778 5778 5778 5778 5777 5776 5776 5775 5774 5773 5772 5771 5769 5768 5767 5765 5763 5761 5759 5757 5754 5752 5749 5747 5744 5741 5739 5736
5755 5758 5759 5761 5762 5763 5764 5765 5766 5767 5768 5769 5768 5768 5767 5767 5766 5765 5764 5763 5762 5761 5759 5758 5757 5755 5753 5751 5749 5746 5744 5741 5739 5736 5733 5731 5728 5725
5745 5747 5748 5750 5751 5752 5753 5754 5755 5756 5757 5758 5758 5757 5757 5756 5755 5755 5754 5753 5752 5751 5749 5748 5746 5744 5742 5741 5738 5736 5733 5730 5728 5725 5722 5719 5717 5714
5733 5735 5737 5738 5740 5741 5742 5743 5744 5745 5745 5746 5746 5746 5746 5745 5744 5744 5743 5742 5741 5740 5738 5737 5735 5733 5731 5729 5727 5724 5721 5719 5716 5714 5711 5708 5706 5702
5722 5723 5725 5727 5728 5730 5731 5732 5733 5733 5734 5734 5735 5735 5734 5733 5733 5733 5732 5731 5730 5728 5727 5726 5724 5722 5720 5718 5715 5713 5710 5708 5705 5702 5700 5697 5694 5691
5709 5711 5713 5715 5716 5718 5719 5720 5721 5722 5722 5723 5723 5723 5723 5722 5721 5721 5720 5719 5719 5717 5716 5714 5712 5710 5708 5706 5704 5701 5699 5697 5694 5691 5688 5685 5682 5679
5697 5699 5701 5703 5704 5706 5707 5708 5709 5710 5710 5711 5711 5711 5711 5711 5710 5709 5709 5708 5707 5705 5704 5702 5700 5698 5696 5694 5692 5689 5687 5684 5682 5679 5676 5673 5670 5666
5685 5687 5689 5691 5692 5694 5695 5696 5697 5698 5699 5699 5699 5699 5699 5699 5698 5697 5696 5696 5695 5694 5691 5690 5688 5686 5684 5682 5679 5677 5674 5671 5669 5666 5663 5660 5656 5653
5673 5675 5677 5678 5680 5682 5683 5684 5685 5686 5686 5687 5687 5687 5687 5687 5686 5685 5684 5683 5682 5681 5679 5678 5676 5674 5671 5669 5666 5664 5661 5658 5655 5652 5649 5646 5643 5639
5660 5662 5664 5666 5667 5669 5671 5672 5673 5673 5674 5674 5675 5675 5674 5674 5673 5672 5671 5670 5669 5668 5666 5665 5663 5661 5658 5655 5653 5650 5647 5644 5641 5638 5635 5632 5629 5625
5647 5649 5651 5653 5655 5656 5658 5659 5660 5661 5661 5662 5662 5662 5661 5661 5660 5659 5658 5657 5657 5655 5653 5652 5650 5648 5645 5642 5639 5636 5633 5630 5627 5624 5620 5617 5614 5610
5634 5636 5638 5640 5642 5642 5644 5646 5647 5648 5648 5649 5649 5649 5649 5648 5647 5645 5644 5644 5643 5643 5641 5639 5636 5634 5633 5630 5626 5622 5619 5616 5613 5609 5606 5602 5599 5595
5620 5622 5625 5627 5628 5629 5631 5632 5634 5634 5635 5635 5636 5636 5635 5635 5634 5633 5632 5631 5630 5629 5628 5625 5623 5621 5618 5616 5613 5609 5605 5602 5599 5595 5591 5587 5583 5580
5606 5608 5611 5613 5614 5616 5617 5619 5620 5620 5621 5622 5622 5623 5622 5622 5621 5620 5619 5617 5617 5616 5614 5612 5610 5607 5604 5602 5599 5596 5592 5588 5585 5581 5577 5573 5569 5564
5592 5594 5597 5599 5600 5602 5604 5605 5606 5607 5607 5608 5609 5609 5608 5608 5607 5606 5605 5604 5603 5602 5600 5598 5596 5593 5590 5587 5585 5582 5579 5575 5571 5567 5563 5558 5554 5550
5578 5581 5583 5585 5586 5588 5590 5591 5592 5593 5594 5594 5595 5595 5594 5594 5593 5593 5592 5591 5589 5588 5586 5583 5581 5579 5576 5573 5570 5567 5564 5560 5556 5552 5548 5543 5539 5534
5564 5567 5569 5571 5573 5575 5576 5577 5578 5579 5580 5580 5581 5581 5580 5580 5579 5579 5578 5577 5575 5574 5572 5569 5566 5564 5561 5558 5555 5552 5549 5545 5541 5537 5533 5529 5524 5519
5551 5554 5556 5558 5560 5561 5563 5563 5564 5565 5566 5566 5566 5566 5566 5566 5565 5564 5564 5563 5561 5560 5558 5556 5553 5550 5548 5544 5541 5537 5534 5530 5526 5522 5518 5515 5511 5505
5538 5540 5543 5545 5546 5547 5549 5550 5550 5551 5552 5552 5553 5553 5552 5552 5552 5551 5550 5549 5547 5546 5544 5541 5539 5536 5534 5532 5528 5522 5519 5516 5512 5508 5504 5500 5496 5491
5525 5527 5529 5531 5533 5534 5535 5536 5537 5538 5538 5538 5539 5539 5539 5538 5538 5537 5536 5535 5534 5532 5530 5527 5525 5522 5520 5517 5513 5509 5504 5501 5497 5494 5490 5486 5482 5477
5512 5514 5516 5518 5519 5520 5522 5523 5524 5524 5525 5525 5525 5525 5525 5524 5524 5523 5522 5521 5520 5518 5516 5514 5511 5508 5505 5502 5499 5496 5491 5486 5482 5479 5475 5472 5469 5464
5500 5501 5503 5504 5506 5507 5508 5509 5510 5511 5512 5512 5512 5511 5511 5511 5510 5510 5509 5507 5506 5504 5502 5500 5497 5494 5491 5488 5485 5482 5478 5474 5469 5464 5459 5456 5453 5450
5488 5489 5490 5491 5492 5493 5494 5495 5496 5497 5498 5498 5498 5498 5498 5497 5497 5496 5495 5494 5492 5491 5489 5487 5484 5481 5478 5475 5472 5469 5465 5461 5457 5453 5448 5443 5439 5436